EW9081 Weather Reports


time (UTC)temp
C
wind
direction
speed
KPH
gust
KPH
rain 1hr
cm
rain 24hr
cm
rain mn
cm
humidity
%
barometer
mb
20260506215610 17 211 8.0 20.9 0.00 0.00 0.00 70 1020.5
20260506215108 17 292 8.0 20.9 0.00 0.00 0.00 70 1020.6
20260506214609 17 280 8.0 22.5 0.00 0.00 0.00 66 1020.5
20260506214109 18 219 8.0 22.5 0.00 0.00 0.00 68 1020.5
20260506213612 18 257 8.0 20.9 0.00 0.00 0.00 65 1020.6
20260506213608 18 339 8.0 17.7 0.00 0.00 0.00 68 1020.6
20260506213222 18 236 6.4 20.9 0.00 0.00 0.00 70 1020.7
20260506212113 18 299 8.0 17.7 0.00 0.00 0.00 70 1020.6
20260506212109 18 254 6.4 17.7 0.00 0.00 0.00 70 1020.7
20260506211223 17 254 6.4 16.1 0.00 0.00 0.00 71 1020.6
20260506211113 18 243 6.4 16.1 0.00 0.00 0.00 66 1020.6
20260506211109 18 284 8.0 17.7 0.00 0.00 0.00 67 1020.7
20260506210220 17 262 8.0 22.5 0.00 0.00 0.00 69 1020.7
20260506205107 17 309 11.3 25.7 0.00 0.00 0.00 67 1020.7
20260506204606 17 190 8.0 25.7 0.00 0.00 0.00 70 1020.7
20260506204106 17 227 6.4 19.3 0.00 0.00 0.00 69 1020.7
20260506203606 17 282 9.7 19.3 0.00 0.00 0.00 73 1020.7
20260506203106 17 215 8.0 20.9 0.00 0.00 0.00 71 1020.7
20260506202606 17 236 9.7 20.9 0.00 0.00 0.00 68 1020.7
20260506202105 17 227 8.0 19.3 0.00 0.00 0.00 70 1020.7
20260506201605 17 224 6.4 19.3 0.00 0.00 0.00 70 1020.7
20260506201110 17 244 6.4 19.3 0.00 0.00 0.00 71 1020.9
20260506201106 17 229 6.4 19.3 0.00 0.00 0.00 70 1020.8
20260506195602 17 263 6.4 14.5 0.00 0.00 0.00 71 1021.0
20260506195102 17 144 6.4 14.5 0.00 0.00 0.00 74 1020.9
20260506194602 17 259 6.4 14.5 0.00 0.00 0.00 72 1021.0
20260506194101 17 232 6.4 17.7 0.00 0.00 0.00 73 1021.0
20260506193607 17 302 6.4 19.3 0.00 0.00 0.00 71 1020.9
20260506193602 17 205 6.4 19.3 0.00 0.00 0.00 70 1020.9
20260506192603 17 299 8.0 20.9 0.00 0.00 0.00 71 1021.0
20260506192107 17 219 6.4 16.1 0.00 0.00 0.00 73 1021.0
20260506192103 17 292 8.0 20.9 0.00 0.00 0.00 73 1021.0
20260506191102 17 195 9.7 24.1 0.00 0.00 0.00 73 1020.9
20260506190607 17 213 4.8 14.5 0.00 0.00 0.00 75 1020.9
20260506190601 17 222 8.0 24.1 0.00 0.00 0.00 71 1020.9
20260506190215 17 236 4.8 16.1 0.00 0.00 0.00 72 1020.9
20260506185603 17 238 4.8 16.1 0.00 0.00 0.00 72 1020.8
20260506184601 16 304 4.8 11.3 0.00 0.00 0.00 71 1020.8
20260506184059 16 288 4.8 11.3 0.00 0.00 0.00 74 1020.8
20260506183559 16 201 3.2 11.3 0.00 0.00 0.00 73 1020.8
20260506183058 16 233 3.2 11.3 0.00 0.00 0.00 73 1020.8
20260506182556 16 267 3.2 11.3 0.00 0.00 0.00 75 1020.8
20260506182056 16 233 3.2 8.0 0.00 0.00 0.00 75 1020.9
20260506181557 16 259 4.8 9.7 0.00 0.00 0.00 77 1020.9
20260506181056 16 259 3.2 9.7 0.00 0.00 0.00 78 1020.9
20260506180557 15 230 3.2 9.7 0.00 0.00 0.00 77 1020.9
20260506180055 15 236 3.2 11.3 0.00 0.00 0.00 77 1021.0
20260506175554 15 278 3.2 11.3 0.00 0.00 0.00 78 1021.1
20260506175052 15 276 3.2 9.7 0.00 0.00 0.00 77 1021.0
20260506174551 15 287 3.2 9.7 0.00 0.00 0.00 77 1020.9
20260506174052 15 264 1.6 6.4 0.00 0.00 0.00 79 1020.9
20260506173555 15 252 1.6 3.2 0.00 0.00 0.00 78 1020.8
20260506173550 15 269 1.6 6.4 0.00 0.00 0.00 78 1020.9
20260506172553 14 255 1.6 6.4 0.00 0.00 0.00 80 1020.8
20260506172548 14 250 1.6 6.4 0.00 0.00 0.00 78 1020.8
20260506171549 14 181 1.6 6.4 0.00 0.00 0.00 79 1020.6
20260506171049 14 180 3.2 8.0 0.00 0.00 0.00 78 1020.7
20260506170546 14 225 1.6 8.0 0.00 0.00 0.00 79 1020.8
20260506170045 13 226 1.6 6.4 0.00 0.00 0.00 80 1020.8
20260506165547 13 230 1.6 8.0 0.00 0.00 0.00 81 1021.0
20260506165045 13 292 1.6 8.0 0.00 0.00 0.00 81 1021.0
20260506164546 13 213 1.6 4.8 0.00 0.00 0.00 80 1021.0
20260506164047 13 275 1.6 4.8 0.00 0.00 0.00 81 1021.0
20260506163547 13 270 1.6 3.2 0.00 0.00 0.00 81 1020.9
20260506163046 13 234 1.6 3.2 0.00 0.00 0.00 81 1020.9
20260506162547 13 250 1.6 3.2 0.00 0.00 0.00 81 1020.9
20260506162046 13 217 1.6 6.4 0.00 0.00 0.00 82 1021.0
20260506161546 13 215 1.6 6.4 0.00 0.00 0.00 83 1020.9
20260506161046 13 277 1.6 4.8 0.00 0.00 0.00 83 1021.0
20260506160546 12 301 1.6 4.8 0.00 0.00 0.00 82 1020.9
20260506160045 12 250 1.6 4.8 0.00 0.00 0.00 83 1020.9
20260506155546 12 260 1.6 4.8 0.00 0.00 0.00 83 1020.8
20260506155047 12 248 1.6 4.8 0.00 0.00 0.00 83 1020.8
20260506154543 12 244 1.6 8.0 0.00 0.00 0.00 84 1020.7
20260506154044 12 215 3.2 8.0 0.00 0.00 0.00 82 1020.6
20260506153543 12 186 3.2 8.0 0.00 0.00 0.00 83 1020.6
20260506153044 12 213 3.2 8.0 0.00 0.00 0.00 83 1020.5
20260506152541 12 236 4.8 12.9 0.00 0.00 0.00 83 1020.3
20260506152039 12 222 4.8 12.9 0.00 0.00 0.00 83 1020.6
20260506151539 12 229 4.8 12.9 0.00 0.00 0.00 84 1020.7
20260506151035 12 199 4.8 12.9 0.00 0.00 0.00 83 1020.8
20260506150537 12 217 3.2 9.7 0.00 0.00 0.00 84 1020.7
20260506150036 11 248 3.2 11.3 0.00 0.00 0.00 85 1020.9
20260506145535 11 220 4.8 11.3 0.00 0.00 0.00 85 1020.9
20260506145042 11 298 4.8 16.1 0.00 0.00 0.00 86 1020.8
20260506145036 11 240 3.2 11.3 0.00 0.00 0.00 85 1020.9
20260506144537 11 252 3.2 11.3 0.00 0.00 0.00 86 1020.8
20260506144148 11 259 4.8 16.1 0.00 0.00 0.00 86 1020.9
20260506143036 11 261 4.8 14.5 0.00 0.00 0.00 87 1020.8
20260506143032 11 271 4.8 12.9 0.00 0.00 0.00 87 1020.8
20260506142031 11 265 4.8 17.7 0.00 0.00 0.00 87 1020.6
20260506141529 11 290 3.2 17.7 0.00 0.00 0.00 87 1020.5
20260506141029 11 290 3.2 6.4 0.00 0.00 0.00 88 1020.3
20260506140529 11 265 3.2 6.4 0.00 0.00 0.00 89 1020.2
20260506140025 10 254 3.2 9.7 0.00 0.00 0.00 89 1020.1
20260506135526 10 248 1.6 9.7 0.00 0.00 0.00 90 1020.1
20260506135023 10 180 1.6 6.4 0.00 0.00 0.00 91 1019.9
20260506134523 10 236 0.0 3.2 0.00 0.00 0.00 91 1020.0
20260506134023 10 233 0.0 3.2 0.00 0.00 0.00 91 1019.9
20260506133523 10 233 0.0 3.2 0.00 0.00 0.00 90 1019.9
20260506133021 10 238 0.0 3.2 0.00 0.00 0.00 90 1019.9
20260506132522 10 238 0.0 3.2 0.00 0.00 0.00 90 1019.9
20260506132021 10 236 0.0 3.2 0.00 0.00 0.00 90 1019.9
20260506131526 10 235 0.0 4.8 0.00 0.00 0.00 90 1019.8
20260506131521 10 236 0.0 4.8 0.00 0.00 0.00 90 1019.9
20260506130521 10 234 0.0 3.2 0.00 0.00 0.00 89 1019.8
20260506130021 10 234 0.0 3.2 0.00 0.00 0.00 89 1019.7
20260506125523 10 223 0.0 3.2 0.00 0.00 0.00 89 1019.7
20260506125023 10 223 0.0 4.8 0.00 0.00 0.00 89 1019.6
20260506124526 10 214 0.0 3.2 0.00 0.00 0.00 88 1019.6
20260506124522 10 223 0.0 4.8 0.00 0.00 0.00 88 1019.7
20260506123520 10 213 1.6 6.4 0.00 0.00 0.00 88 1019.5
20260506123019 10 217 3.2 8.0 0.00 0.00 0.00 87 1019.4
20260506122519 10 219 3.2 8.0 0.00 0.00 0.00 88 1019.3
20260506122019 10 205 3.2 6.4 0.00 0.00 0.00 88 1019.4
20260506121524 11 228 3.2 14.5 0.00 0.00 0.00 88 1019.5
20260506121519 11 246 3.2 9.7 0.00 0.00 0.00 87 1019.5
20260506120521 11 264 3.2 14.5 0.00 0.00 0.00 88 1019.5
20260506120020 11 241 3.2 9.7 0.00 0.00 0.00 88 1019.6
20260506115519 11 253 1.6 11.3 0.00 0.00 0.00 88 1019.6
20260506115016 11 232 3.2 11.3 0.00 0.00 0.00 88 1019.4
20260506114519 11 257 3.2 11.3 0.00 0.00 0.00 88 1019.4
20260506114017 11 242 3.2 14.5 0.00 0.00 0.00 88 1019.4
20260506113518 11 252 3.2 14.5 0.00 0.00 0.00 87 1019.3
20260506113017 11 244 4.8 11.3 0.00 0.00 0.00 88 1019.3
20260506112523 11 211 3.2 11.3 0.00 0.00 0.00 88 1019.2
20260506112517 11 251 4.8 12.9 0.00 0.00 0.00 87 1019.3
20260506112018 11 253 3.2 12.9 0.00 0.00 0.00 88 1019.3
20260506111517 11 255 3.2 11.3 0.00 0.00 0.00 87 1019.3
20260506110520 11 268 3.2 11.3 0.00 0.00 0.00 87 1019.1
20260506110516 11 247 4.8 16.1 0.00 0.00 0.00 88 1019.1
20260506105519 11 302 3.2 12.9 0.00 0.00 0.00 88 1018.9
20260506105514 11 259 4.8 16.1 0.00 0.00 0.00 88 1019.0
20260506105014 11 233 4.8 14.5 0.00 0.00 0.00 88 1019.0
20260506104020 11 310 3.2 12.9 0.00 0.00 0.00 89 1018.7
20260506104014 11 264 3.2 12.9 0.00 0.00 0.00 89 1018.7
20260506103515 11 227 3.2 12.9 0.00 0.00 0.00 89 1018.7
20260506102515 11 219 3.2 9.7 0.00 0.00 0.00 90 1018.7
20260506102015 10 238 3.2 9.7 0.00 0.00 0.00 90 1018.6
20260506101516 10 245 1.6 9.7 0.00 0.00 0.00 90 1018.6
20260506101012 10 269 1.6 9.7 0.00 0.00 0.00 90 1018.6
20260506100514 10 206 3.2 11.3 0.00 0.00 0.00 90 1018.5
20260506100011 10 248 3.2 11.3 0.00 0.00 0.00 90 1018.5
20260506095511 10 252 3.2 11.3 0.00 0.00 0.00 90 1018.5
20260506095011 10 257 3.2 9.7 0.00 0.00 0.00 90 1018.4
20260506094516 10 248 1.6 6.4 0.00 0.00 0.00 91 1018.3
20260506094511 10 251 3.2 8.0 0.00 0.00 0.00 90 1018.4
20260506094010 10 251 3.2 8.0 0.00 0.00 0.00 90 1018.3
20260506093013 10 244 3.2 8.0 0.00 0.00 0.00 91 1018.2
20260506093009 10 288 3.2 8.0 0.00 0.00 0.00 91 1018.2
20260506092622 10 290 1.6 6.4 0.00 0.00 0.00 91 1018.2
20260506091508 10 247 1.6 4.8 0.00 0.00 0.00 91 1018.2
20260506091006 10 252 1.6 6.4 0.00 0.00 0.00 91 1018.2
20260506090507 10 254 1.6 8.0 0.00 0.00 0.00 91 1018.2
20260506090006 10 257 1.6 8.0 0.00 0.00 0.00 92 1018.2
20260506085507 10 244 1.6 6.4 0.00 0.00 0.00 91 1018.2
20260506085007 10 257 1.6 6.4 0.00 0.00 0.00 91 1018.1
20260506084508 10 239 0.0 4.8 0.00 0.00 0.00 91 1018.1
20260506084007 10 290 0.0 3.2 0.00 0.00 0.00 91 1018.0
20260506083507 10 234 1.6 3.2 0.00 0.00 0.00 91 1018.0
20260506083004 10 248 1.6 6.4 0.00 0.00 0.00 91 1017.9
20260506082504 10 251 1.6 6.4 0.00 0.00 0.00 91 1017.9
20260506082005 10 244 1.6 6.4 0.00 0.00 0.00 91 1017.9
20260506081506 10 242 1.6 4.8 0.00 0.00 0.00 90 1017.9
20260506081006 10 254 1.6 4.8 0.00 0.00 0.00 90 1017.9
20260506080502 10 234 0.0 3.2 0.00 0.00 0.00 90 1017.8
20260506073501 10 236 0.0 3.2 0.00 0.00 0.00 89 1017.6
20260506073000 10 248 0.0 3.2 0.00 0.00 0.00 89 1017.6
20260506072501 10 225 1.6 6.4 0.00 0.00 0.00 89 1017.6
20260506072005 11 219 3.2 8.0 0.00 0.00 0.00 89 1017.6
20260506072001 11 232 3.2 6.4 0.00 0.00 0.00 89 1017.6
20260506071005 11 215 3.2 6.4 0.00 0.00 0.00 89 1017.5
20260506071001 11 215 3.2 8.0 0.00 0.00 0.00 89 1017.6
20260506062459 11 248 1.6 4.8 0.00 0.00 0.00 88 1017.4
20260506062000 11 228 1.6 4.8 0.00 0.00 0.00 88 1017.4
20260506061459 11 243 1.6 4.8 0.00 0.00 0.00 88 1017.3
20260506060959 11 235 1.6 4.8 0.00 0.00 0.00 87 1017.3
20260506060501 11 232 1.6 12.9 0.00 0.00 0.00 87 1017.3
20260506050954 12 259 3.2 9.7 0.00 0.00 0.00 85 1017.1
20260506050455 12 223 3.2 9.7 0.00 0.00 0.00 85 1017.1
20260506044955 12 234 1.6 8.0 0.00 0.00 0.00 85 1017.0
20260506044454 12 236 3.2 11.3 0.00 0.00 0.00 85 1017.0
20260506043953 12 249 3.2 12.9 0.00 0.00 0.00 85 1016.9
20260506043453 12 234 3.2 12.9 0.00 0.00 0.00 85 1016.9
20260506042954 12 270 3.2 12.9 0.00 0.00 0.00 85 1016.8
20260506042451 12 266 3.2 11.3 0.00 0.00 0.00 85 1016.7
20260506041951 12 242 3.2 11.3 0.00 0.00 0.00 85 1016.6
20260506041451 12 284 1.6 11.3 0.00 0.00 0.00 85 1016.6
20260506040952 12 242 3.2 11.3 0.00 0.00 0.00 84 1016.4
20260506040450 12 255 1.6 11.3 0.00 0.00 0.00 84 1016.3
20260506035950 12 247 1.6 6.4 0.00 0.00 0.00 84 1016.3
20260506035451 12 223 3.2 14.5 0.00 0.00 0.00 83 1016.1
20260506035447 12 254 3.2 11.3 0.00 0.00 0.00 83 1016.2
20260506034447 12 273 3.2 14.5 0.00 0.00 0.00 83 1016.0
20260506033948 12 254 3.2 8.0 0.00 0.00 0.00 82 1015.9
20260506033446 12 272 3.2 14.5 0.00 0.00 0.00 82 1015.8
20260506033102 13 234 3.2 11.3 0.00 0.00 0.00 80 1015.6
20260506032952 13 257 3.2 9.7 0.00 0.00 0.00 80 1015.7
20260506032946 13 260 3.2 14.5 0.00 0.00 0.00 81 1015.7
20260506031447 13 261 4.8 11.3 0.00 0.00 0.00 79 1015.6
20260506030947 13 209 4.8 11.3 0.00 0.00 0.00 78 1015.6
20260506030447 14 266 3.2 9.7 0.00 0.00 0.00 78 1015.5
20260506025946 14 252 1.6 9.7 0.00 0.00 0.00 77 1015.4
20260506025447 14 259 1.6 8.0 0.00 0.00 0.00 77 1015.3
20260506024947 15 258 3.2 9.7 0.00 0.00 0.00 76 1015.3
20260506024447 15 263 3.2 11.3 0.00 0.00 0.00 75 1015.3
20260506023947 15 238 3.2 11.3 0.00 0.00 0.00 74 1015.2
20260506023447 16 234 3.2 14.5 0.00 0.00 0.00 73 1015.2
20260506022946 16 242 3.2 14.5 0.00 0.00 0.00 73 1015.1
20260506022451 16 249 3.2 12.9 0.00 0.00 0.00 71 1015.0
20260506022447 16 281 3.2 9.7 0.00 0.00 0.00 72 1015.0
20260506021452 17 237 3.2 11.3 0.00 0.00 0.00 70 1015.0
20260506021447 16 229 3.2 12.9 0.00 0.00 0.00 71 1015.0
20260506020452 17 264 3.2 11.3 0.00 0.00 0.00 69 1015.0
20260506020446 17 261 3.2 11.3 0.00 0.00 0.00 69 1015.0
20260506020100 18 271 3.2 11.3 0.00 0.00 0.00 67 1015.0
20260506014948 18 226 3.2 11.3 0.00 0.00 0.00 67 1014.9
20260506014446 18 244 3.2 11.3 0.00 0.00 0.00 68 1014.9
20260506013952 18 253 3.2 9.7 0.00 0.00 0.00 65 1014.9
20260506013947 18 199 3.2 11.3 0.00 0.00 0.00 66 1014.8
20260506012944 19 274 3.2 9.7 0.00 0.00 0.00 65 1014.9
20260506012450 20 215 4.8 14.5 0.00 0.00 0.00 63 1014.8
20260506012446 19 260 4.8 14.5 0.00 0.00 0.00 66 1014.8
20260506011445 20 225 3.2 9.7 0.00 0.00 0.00 65 1014.8
20260506010944 20 289 3.2 9.7 0.00 0.00 0.00 65 1014.7
20260506010445 20 306 3.2 9.7 0.00 0.00 0.00 66 1014.8
20260506005945 20 278 1.6 9.7 0.00 0.00 0.00 64 1014.7
20260506005449 20 12 1.6 6.4 0.00 0.00 0.00 68 1014.7
20260506005444 20 273 1.6 4.8 0.00 0.00 0.00 64 1014.7
20260506005102 20 167 1.6 4.8 0.00 0.00 0.00 69 1014.7
20260506005058 20 167 1.6 6.4 0.00 0.00 0.00 68 1014.7
20260506003444 19 21 1.6 3.2 0.00 0.00 0.00 71 1014.7
20260506002943 18 5 0.0 4.8 0.00 0.00 0.00 71 1014.7
20260506002442 18 5 0.0 4.8 0.00 0.00 0.00 71 1014.7
20260506001942 18 15 0.0 3.2 0.00 0.00 0.00 68 1014.7
20260506001444 18 5 0.0 3.2 0.00 0.00 0.00 68 1014.7
20260506000947 19 67 3.2 12.9 0.00 0.00 0.00 73 1014.8
20260506000942 19 9 1.6 6.4 0.00 0.00 0.00 69 1014.7
20260506000556 18 5 1.6 12.9 0.00 0.00 0.00 71 1014.8
20260505235444 18 276 1.6 4.8 0.00 0.00 0.00 70 1014.8
20260505234940 18 163 1.6 8.0 0.00 0.00 0.00 69 1014.8
20260505234440 18 178 3.2 8.0 0.00 0.00 0.00 68 1014.8
20260505233939 19 84 1.6 6.4 0.00 0.00 0.00 66 1014.9
20260505233438 19 96 3.2 6.4 0.00 0.00 0.00 68 1014.9
20260505232942 20 180 3.2 8.0 0.00 0.00 0.00 67 1015.0
20260505232938 20 128 3.2 8.0 0.00 0.00 0.00 68 1015.0
20260505231937 20 169 3.2 8.0 0.00 0.00 0.00 66 1015.0
20260505231434 20 350 3.2 11.3 0.00 0.00 0.00 68 1015.1
20260505230939 20 64 3.2 6.4 0.00 0.00 0.00 68 1015.1
20260505230934 20 43 3.2 11.3 0.00 0.00 0.00 67 1015.1
20260505225934 20 17 1.6 6.4 0.00 0.00 0.00 66 1015.0
20260505225435 20 153 1.6 9.7 0.00 0.00 0.00 63 1015.1
20260505224932 20 128 1.6 9.7 0.00 0.00 0.00 68 1015.1
20260505224433 20 211 1.6 6.4 0.00 0.00 0.00 62 1015.2
20260505223932 20 169 1.6 6.4 0.00 0.00 0.00 63 1015.2
20260505223433 20 208 1.6 4.8 0.00 0.00 0.00 64 1015.3
20260505222933 19 221 1.6 8.0 0.00 0.00 0.00 63 1015.3
20260505222431 19 287 1.6 8.0 0.00 0.00 0.00 65 1015.4
20260505221932 18 217 3.2 8.0 0.00 0.00 0.00 65 1015.4
20260505221432 18 186 3.2 9.7 0.00 0.00 0.00 67 1015.4
20260505220932 18 225 3.2 9.7 0.00 0.00 0.00 67 1015.4
20260505220431 18 212 3.2 8.0 0.00 0.00 0.00 65 1015.5